Location: Agendoh
(31.0664°N, 8.9343°W)
Time: 08:58:17
(UTC+00:00)

Cosmos 2208 Rocket - Pass Details

Date: 06 December 2021
Orbit: 754 x 805 km, 74.0° (Epoch: 24 January)

Event Time Altitude Azimuth Distance (km) Brightness Sun altitude
Exits shadow 05:38:16 44° 265° (W) 1,080 4.3 -21.3°
Maximum altitude 05:38:27 44° 259° (W) 1,076 4.3 -21.3°
Drops below altitude 10° 05:43:28 10° 188° (S) 2,328 6.6 -20.3°
Sets 05:45:55 0° 181° (S) 3,244 7.4 -19.7°
